Regional Weather Roundup
Issued by NWS State College, PA

Home | Current Version | Previous Version | Graphics & Text | Print | Product List | Glossary On
Versions: 1 2 3 4 5 6 7 8 9 10 11 12 13 14 15 16 17 18 19 20 21 22 23 24 25 26 27 28 29 30 31 32 33 34 35 36 37 38 39 40 41 42 43 44 45 46 47 48 49 50
000
ASUS41 KCTP 241103
RWRCTP

REGIONAL WEATHER ROUNDUP
NATIONAL WEATHER SERVICE STATE COLLEGE PA
700 AM EDT TUE MAY 24 2016

Note: "fair" indicates few or no clouds below 12,000 feet with no
significant weather and/or obstructions to visibility.

* = STATION THAT DOES NOT REPORT PRECIPITATION /E.G. RAIN...SNOW...ETC/
    THUNDER OR FOG.

PAZ002>004-007>009-013>016-020>023-029>032-241200-
WESTERN PENNSYLVANIA

CITY           SKY/WX    TMP DP  RH WIND       PRES   REMARKS
ERIE           SUNNY     53  45  74 S3        30.03R
MEADVILLE      SUNNY     49  46  90 CALM      30.05R
FRANKLIN*      SUNNY     46  43  87 CALM      30.07S
NEW CASTLE     FAIR      48  46  93 CALM      30.07R
BEAVER COUNTY  NOT AVBL
BUTLER*        SUNNY    N/A N/A N/A CALM      30.08R
PITTSBURGH INT MOSUNNY   52  47  83 CALM      30.06R
PITTSBURGH     SUNNY     52  50  93 S5        30.06R
INDIANA*       MOSUNNY   52  52 100 CALM      30.10R
LATROBE        MOSUNNY   54  54 100 SW6       30.08R
WASHINGTON CO*   N/A     46  46 100 CALM      30.08R VSB 3/4
$$

PAZ004>006-010>012-017>019-024>028-033>037-041-042-045-046-049>053-241200-
CENTRAL PENNSYLVANIA

CITY           SKY/WX    TMP DP  RH WIND       PRES   REMARKS
BRADFORD       SUNNY     47  42  83 CALM      30.05R
DUBOIS         SUNNY     48  43  82 W3        30.05R
CLEARFIELD     SUNNY     48  46  93 SW3       30.04S FOG
JOHNSTOWN      MOSUNNY   52  45  77 W6        30.06R
ALTOONA        SUNNY     55  47  74 W9        30.04R
STATE COLLEGE  SUNNY     52  48  87 S3        30.01R
WILLIAMSPORT   MOSUNNY   54  48  80 W14       29.96R
SELINSGROVE    PTSUNNY   51  50  96 CALM      29.97R FOG
FT INDIANTOWN  PTSUNNY   61  48  60 N9        29.93R
CAPITAL CITY   MOSUNNY   58  51  78 W6        29.95R
HARRISBURG     CLOUDY    59  51  75 NW13      29.94R
YORK           MOSUNNY   60  50  69 W6        29.95R
$$

PAZ038>040-043-044-047-048-054-055-060>062-067>071-241200-
EASTERN PENNSYLVANIA

CITY           SKY/WX    TMP DP  RH WIND       PRES   REMARKS
SCRANTON       MOSUNNY   55  47  74 CALM      29.95R
MOUNT POCONO   MOSUNNY   50  43  77 N7        29.95R
ALLENTOWN      MOSUNNY   57  54  89 CALM      29.94R
QUAKERTOWN*    MOSUNNY   55  55 100 CALM      29.94R
READING        PTSUNNY   57  55  93 CALM      29.92R
LANCASTER      CLOUDY    57  53  86 W3        29.93R
COATESVILLE      N/A    N/A N/A N/A MISG        N/A
POTTSTOWN      SUNNY     55  55 100 CALM      29.94R FOG
BLUE BELL      MOSUNNY   54  54 100 CALM      29.92R
DOYLESTOWN     FOG       54  54 100 CALM      29.92R VSB 1/4
WILLOW GROVE   NOT AVBL
NORTH PHILA    MOSUNNY   57  55  93 CALM      29.93R FOG
PHILADELPHIA   CLOUDY    59  56  89 CALM      29.92S
$$




USA.gov is the U.S. government's official web portal to all federal, state and local government web resources and services.